Reflectivity
-20 -11 3 -13 -20 -20 -20 -13 -20 -20 -20 -20 -20 -20 -20 -20 -20 -20 -20 -20 -20 -20 -20 -20 -20 -20 -20 -20 -20 -20 -20 -20 -20 -8 -20 -20 -20 21 -9 -20 -20 -20 -20 -20 -20
-20 -17 -19 -20 -6 -20 -20 -20 -20 -20 -20 -20 -20 -20 -20 -20 -20 -20 -20 -20 -20 -20 -20 -20 -20 -20 -20 -20 -20 -20 -20 -20 -20 -20 -20 -20 -20 -20 -5 -20 -9 -20 -20 -20 -20
-20 -20 -20 -20 -20 -8 -20 -20 -20 -20 -20 -20 -20 -20 -20 -20 -20 -20 -20 -20 -20 -20 -20 -20 -20 -20 -20 -20 -20 -20 -20 -20 -20 -20 -20 -20 -20 -20 18 -20 -20 10 -20 -20 -20
-20 -20 -20 -20 -20 -20 -14 -20 -20 -20 -20 -20 -20 -20 -20 -20 -20 -20 -20 -20 -20 -20 -20 -20 -20 -20 -20 -20 -20 -20 -20 -20 -20 -20 -20 -20 -20 -20 -20 -2 0 -20 -20 -20 -20
-20 -20 -20 -20 -20 -20 -13 -20 -20 -20 -20 -20 -20 -2 -20 -20 -20 -20 -20 -20 -20 -20 -20 -20 -20 -20 -20 -20 -20 -20 -20 -20 -20 -20 -20 -20 -20 -20 -8 1 -20 -10 -13 -2 11
-20 -20 -20 -20 -20 -20 -20 -20 -20 -20 -20 -20 -20 -19 -5 -20 -20 -20 -20 -20 -20 -20 -20 -20 -20 -20 -20 -20 -20 -20 -20 -20 -20 -20 -20 -20 -20 -20 10 11 7 12 -18 -19 -20
-20 -20 -20 -20 -20 -20 -20 -20 -20 -20 -20 -20 -20 -20 -18 -20 -20 -20 -20 -20 -20 -20 -20 -20 -20 -20 -20 -20 -20 -20 -20 -20 -20 -20 -20 -20 -20 0 -18 -19 -20 -6 -1 -17 -20
-20 -20 -20 -20 -20 -20 -20 -20 -20 -20 -20 -20 -20 -20 -20 -17 -20 -20 -20 -20 -20 -20 -20 -20 -20 -20 -20 -20 -20 -20 -20 -20 -20 -20 -20 -20 -5 -20 -8 -10 8 -1 -4 11 11
-20 -20 -20 -20 -20 -20 -20 -20 -20 -20 -20 -20 -20 -20 -20 -20 -20 -20 -20 -20 -20 -20 -20 -20 -20 -20 -20 -20 -20 -20 -20 -20 -20 -20 -20 -20 -17 1 2 -2 -20 -20 1 12 1
-20 -20 -20 -20 -20 -20 -20 -20 -20 -20 -20 -20 -20 -20 -20 -20 -20 -20 -20 -20 -20 -20 -20 -20 -20 -20 -20 -20 -20 -20 -20 -20 -12 -20 -20 -20 -20 -2 4 7 -6 -10 1 4 12
-20 -20 -20 -20 -20 -20 -20 -20 -20 -20 -20 -20 -20 -20 -20 -20 -20 -20 -20 -20 -20 -16 -20 -20 -20 -20 -20 -20 -20 -20 -20 -20 -20 -20 -20 -20 -20 -19 -20 -9 4 8 -3 3 4
-20 -20 -20 -20 -20 -20 -20 -20 -20 -20 -20 -20 -20 -20 -20 -20 -20 -20 -20 -20 -20 -20 -20 -20 -20 -20 -20 -20 -20 -20 -20 -20 -20 -20 -20 -20 -7 4 13 -16 -20 -20 -19 -12 -3
-20 -20 -20 -20 -20 -20 -20 -20 -20 -20 -20 -20 -20 -20 -20 -20 -20 -20 -20 -20 -20 -20 -20 -20 -20 -20 -20 -20 -20 -20 -20 -20 -20 -20 -20 -20 -1 18 -20 -20 -20 -5 -7 12 8
-20 -20 -20 -20 -20 -20 -20 -20 -20 -20 -20 -20 -20 -20 -20 -20 -20 -20 -20 -20 -20 -20 -20 -20 -20 -20 -20 -20 -20 -20 -20 -20 -20 -20 -20 -20 -20 -6 -20 -5 6 -20 -13 14 -1
-20 -20 -20 -20 -20 -20 -20 -20 -20 -9 -20 -20 -20 -18 -20 -20 -17 -20 -20 -20 -20 -20 -20 -20 -6 -20 -20 -20 -20 -20 -20 -20 -20 -20 -20 -20 -20 -20 11 29 9 -20 -11 -0 -3
-20 -20 -20 -20 -20 -20 2 -20 -20 -12 -20 -20 -20 -20 -20 -20 -20 -16 -20 -20 -20 -20 -20 -20 -20 -20 -20 -20 -20 -20 -20 -20 -20 -20 -20 -20 -12 -1 -19 18 -20 -20 -20 3 -3
-20 -20 -20 -20 -20 -20 3 -13 -20 -18 -20 -20 -20 -20 -20 -20 -20 -20 -20 -20 -20 -20 -20 -20 -20 -20 -20 -20 -20 -20 -20 -20 -20 -20 -20 -17 7 -19 22 8 -20 -20 -20 10 -2
5 -20 -20 -20 -20 -20 -19 -8 -7 -20 -20 -20 -20 -20 -20 -20 -20 -20 -20 -20 -20 -20 -20 -20 -20 -20 -20 -20 -20 -20 -20 -20 -20 -20 -17 28 -12 -20 -20 -20 -20 -20 -13 -1 15
16 -20 -20 -20 -20 -20 -20 8 -20 -20 -20 -20 -20 -20 -20 -20 -20 -20 -20 -20 -20 -20 -20 -20 -20 -20 -20 -20 -20 -20 -20 -20 -20 -20 -10 9 -20 -20 -19 -20 -20 -20 -20 -19 -19
-20 -20 -20 -20 -20 -20 -20 -20 -20 -20 -20 -20 -20 -20 -20 -20 -20 -20 -20 -20 -20 -20 -20 -20 -20 -20 -20 -20 -20 -20 -20 -20 -20 -20 -1 -13 -20 -20 17 -20 -20 -19 -20 -20 -20
8 8 -20 -20 -20 -11 -20 -20 -20 -20 -20 -20 -20 -20 -20 -20 -20 -20 -20 -20 -20 -20 -20 -20 -20 -20 -20 -20 -20 -20 -20 -20 -20 -20 -20 -20 -20 5 -10 -20 -20 -20 -20 -20 -20
16 23 -20 -20 9 9 -20 -20 -20 -20 -20 -20 -20 -20 -20 -20 -20 -20 -20 -20 -20 -20 -20 -20 -20 -20 -20 -20 -20 -20 -20 -20 -20 5 -20 -20 -20 -20 -20 -20 -20 -20 -20 -20 -20
26 -7 17 26 10 -4 -20 -20 -20 -20 -20 -20 -20 -20 -20 -20 -20 -20 -20 -20 -20 -20 -20 -20 -20 -20 -20 -20 -20 -20 -20 -20 -20 -20 -20 -20 -20 -20 -20 -20 -20 -20 -20 -20 -20
30 10 -20 26 13 -5 6 -11 -20 -20 -20 -20 -20 -20 -20 -20 -20 -20 -20 -20 -20 -20 -20 -20 -20 -20 -20 -20 -20 -20 -20 -20 -8 -18 -17 -20 -20 -20 -20 -20 -17 -20 -20 -20 -20
35 14 -17 -13 10 -1 -20 -20 -8 -20 -6 -20 -20 -20 -20 -20 -20 -20 -20 -20 -20 -20 -20 -20 -20 -20 -20 -20 -8 -20 -20 -20 12 -3 -20 -20 -20 -20 -20 -20 -20 -20 -20 -20 -20
36 26 22 14 -19 16 -16 -20 -20 -20 -0 -17 -20 -20 -20 -20 -20 -20 -20 -20 -20 -20 -20 -20 -19 -20 -20 -20 -20 -20 -20 -20 -20 -20 -20 -20 -20 -20 -20 -20 -20 -20 -20 -20 -20
36 26 13 -19 -17 12 -13 -2 -15 -1 4 -19 -20 -20 -20 -20 -20 -16 -20 -20 -20 -19 -20 -20 -20 -20 -20 -20 0 7 -20 -20 -20 -20 -20 -20 -20 -20 -20 -20 -20 -20 -20 -20 -20
Wind_Speed
19 19 18 15 15 16 17 17 18 19 20 20 23 21 23 23 24 6 6 10 6 9 3 4 4 7 9 6 7 3 3 7 8 4 8 16 10 8 11 13 9 7 9 19 17
18 19 20 21 15 15 16 17 18 19 20 21 23 23 22 21 7 9 10 6 6 9 3 4 7 9 4 6 5 3 2 10 3 19 19 22 12 11 9 14 14 19 20 17 14
18 18 20 20 21 17 16 17 18 20 21 21 23 23 24 19 5 4 2 5 7 6 4 5 9 6 6 5 8 7 7 9 11 20 14 14 27 9 15 12 9 19 18 14 9
17 18 19 20 20 21 18 17 19 21 22 22 22 23 26 3 1 1 6 6 5 5 2 4 7 4 4 6 9 2 9 3 1 6 8 14 11 21 19 13 17 14 15 12 11
16 17 19 21 21 21 20 18 19 21 22 23 21 20 11 4 9 5 8 5 6 6 5 6 7 5 5 7 7 4 6 9 21 26 23 26 21 20 17 16 15 13 10 7 13
15 16 19 20 22 22 21 20 20 21 21 22 20 18 3 5 7 7 8 7 5 4 5 8 8 9 7 5 4 6 7 8 16 16 11 24 12 7 9 12 18 20 19 18 19
15 16 17 20 22 22 22 23 22 22 22 22 17 6 5 18 7 9 8 7 5 7 8 10 11 4 6 8 7 10 7 7 17 11 12 26 16 10 11 17 17 17 14 15 15
16 15 16 19 20 21 23 25 26 25 21 19 7 5 10 9 8 11 9 9 8 8 11 10 7 3 2 7 10 7 6 4 6 10 10 12 7 9 11 16 14 13 12 11 12
15 16 16 18 20 22 23 28 31 26 17 11 3 3 12 8 5 10 7 7 7 8 4 7 4 2 6 3 6 5 8 8 10 13 11 4 12 11 13 14 12 10 9 9 9
13 15 17 18 21 22 26 30 29 14 4 6 7 4 7 6 6 6 8 8 6 4 5 2 2 2 2 2 8 7 7 8 7 4 20 18 15 14 11 12 10 9 8 7 7
11 15 17 18 22 23 16 10 7 3 3 8 5 6 8 4 4 4 7 6 4 4 7 5 3 9 12 13 12 13 14 12 11 16 12 16 18 14 12 12 10 8 8 7 7
9 12 17 19 23 25 9 4 9 4 11 15 23 20 24 11 9 6 4 8 7 9 7 5 16 12 14 13 14 15 14 2 3 16 15 14 15 14 11 9 10 10 8 8 7
6 12 15 20 24 11 4 9 18 7 5 11 13 11 13 10 9 11 8 7 7 4 9 11 13 17 15 14 14 10 6 5 8 13 16 20 8 7 8 9 10 10 9 8 8
4 9 13 20 7 10 3 18 19 12 4 9 10 11 10 8 10 18 7 9 5 14 14 10 18 17 13 10 8 7 7 8 10 8 8 12 5 6 8 8 9 10 9 9 9
4 7 11 9 6 6 12 15 17 3 3 8 11 9 15 17 6 13 21 7 11 13 10 10 7 12 16 13 6 10 5 4 11 7 6 3 9 3 11 8 11 11 11 10 8
5 5 9 9 2 4 11 15 3 2 11 7 10 11 13 21 10 4 10 9 7 7 10 14 8 11 15 10 8 7 3 4 4 2 3 5 6 5 7 13 17 14 13 12 8
7 6 4 5 4 9 10 6 2 8 7 7 10 17 16 16 18 7 11 15 14 10 14 13 10 10 9 6 7 6 4 1 3 2 6 5 8 5 9 10 21 20 17 13 9
8 6 5 5 5 4 4 3 11 8 14 3 12 14 15 13 15 20 7 12 12 7 5 8 8 15 7 10 9 8 9 7 7 5 1 7 6 5 13 19 18 15 15 12 9
7 3 4 5 5 3 3 10 9 8 11 10 5 12 12 15 7 17 18 14 19 20 9 11 12 6 13 7 8 5 6 8 3 4 6 6 7 11 13 16 15 16 14 12 10
3 4 8 8 9 4 3 18 15 13 18 19 8 7 12 15 13 17 11 16 18 20 19 7 3 12 16 5 8 9 7 2 3 6 4 6 7 9 13 15 16 14 13 13 9
2 4 7 13 5 3 7 12 16 27 20 12 15 12 12 10 16 10 9 14 21 17 19 20 1 11 5 9 8 5 3 4 6 6 6 7 4 14 20 18 18 16 15 12 9
4 5 3 12 7 4 12 8 7 27 21 19 16 17 16 10 14 18 15 11 12 13 20 16 7 9 9 7 13 9 9 7 5 3 3 5 1 18 21 20 18 16 15 11 14
3 4 8 7 9 13 9 19 18 27 23 12 14 12 14 12 3 16 17 18 10 16 11 12 4 7 7 3 4 6 5 5 3 4 4 8 6 13 20 19 17 16 14 16 11
3 5 6 8 3 10 12 16 21 17 23 23 24 23 24 9 6 8 16 8 22 10 13 12 6 8 6 9 6 6 6 3 2 3 5 4 22 19 21 22 18 15 18 15 15
5 5 8 7 9 13 9 9 13 16 21 16 11 26 20 8 8 4 8 6 5 10 9 10 6 5 3 6 8 7 7 7 5 8 7 20 24 22 22 21 19 18 17 18 14
4 5 2 1 8 9 15 12 23 19 17 24 23 32 19 13 8 9 4 4 7 1 6 2 5 3 4 10 11 9 11 5 17 19 25 22 17 19 17 20 17 18 18 16 14
5 4 3 3 3 5 7 11 12 17 17 28 25 20 13 8 8 11 9 10 9 9 4 7 7 4 5 9 6 4 7 10 13 19 30 22 17 23 21 20 18 17 16 15 16
Wind_Direction
3 358 351 348 344 342 341 340 336 336 335 332 325 327 325 328 316 277 242 223 183 164 190 276 223 264 278 259 270 292 1 285 302 167 96 105 116 58 68 58 43 3 125 129 145
359 355 354 351 338 337 334 334 333 333 331 330 323 325 325 331 302 260 240 157 138 150 207 252 258 240 260 271 271 134 152 253 316 104 91 65 62 128 75 68 74 88 101 125 148
355 353 350 347 346 333 331 330 328 329 327 328 322 326 321 326 301 279 150 189 157 172 296 309 305 310 254 260 266 263 215 263 72 115 103 96 52 49 128 70 104 127 127 138 160
352 349 348 344 342 342 329 324 324 323 325 322 323 327 319 260 179 166 182 226 206 205 242 274 274 273 265 265 269 292 272 275 218 89 95 87 92 67 65 106 126 134 145 157 181
352 349 346 342 340 340 337 325 319 318 318 317 323 331 341 296 254 180 155 143 153 166 209 224 265 264 266 264 311 301 276 85 107 92 88 97 83 90 95 119 141 146 146 145 87
350 349 346 342 338 336 331 326 312 309 310 311 323 328 249 264 258 150 172 157 200 197 219 236 246 245 262 284 341 292 329 118 124 123 119 101 95 88 116 124 78 69 61 61 67
347 345 341 340 337 331 326 318 311 301 303 304 317 296 264 242 282 323 338 288 219 199 239 237 246 265 313 323 280 289 305 307 138 143 130 114 50 92 122 101 89 84 73 67 64
341 341 340 335 331 326 319 314 303 299 296 290 297 273 250 259 242 286 267 279 245 228 230 267 348 341 41 323 342 332 305 251 170 160 168 61 124 139 120 108 101 96 89 76 71
336 337 337 334 327 323 318 308 296 291 276 262 271 218 263 279 223 234 224 240 258 253 287 290 34 339 338 282 328 288 250 243 267 168 123 98 133 153 121 114 110 102 97 98 91
331 334 332 332 324 320 319 306 286 298 216 207 260 298 260 238 225 201 206 234 244 204 276 202 8 230 283 104 235 250 269 261 176 43 80 92 119 132 132 120 117 114 110 107 107
330 332 327 329 320 319 334 331 18 12 316 232 199 252 291 314 284 185 183 190 239 218 199 189 179 219 221 211 229 242 258 276 121 147 84 116 134 135 135 125 134 136 135 128 121
327 330 325 326 317 315 310 274 310 271 298 275 266 262 272 287 296 252 192 168 180 221 170 243 233 223 234 245 225 239 255 117 115 111 93 135 132 134 149 155 155 148 144 142 138
321 327 329 321 315 319 279 337 327 5 278 274 221 226 230 201 237 254 187 189 191 198 208 205 232 212 234 251 264 268 218 242 173 76 93 121 113 157 154 144 145 144 146 149 158
314 326 329 327 330 319 304 336 327 318 292 267 213 224 197 221 239 231 229 158 222 202 226 229 245 253 254 249 239 265 226 251 134 135 181 216 143 176 163 149 152 149 154 160 171
287 319 323 321 305 325 329 324 318 291 292 219 191 181 171 178 156 207 213 193 194 204 171 234 215 235 244 251 241 239 285 240 227 188 89 237 94 85 155 194 177 167 166 174 158
241 296 322 313 164 316 333 318 328 212 241 272 150 160 146 196 209 255 163 195 219 239 256 250 249 215 237 257 251 257 179 285 340 77 357 22 97 221 188 201 172 170 170 156 167
218 249 279 317 284 351 334 330 179 231 245 221 170 164 177 188 209 221 170 187 194 192 227 258 262 259 221 232 277 249 95 295 334 324 232 206 73 42 223 184 165 163 155 156 167
211 227 258 240 275 22 341 255 227 242 255 329 162 165 194 180 207 216 199 203 207 209 173 205 261 238 228 196 207 206 162 168 205 182 235 79 156 39 61 97 127 133 137 144 180
205 235 243 232 217 89 81 213 221 216 208 269 193 180 194 213 165 194 222 217 204 202 185 183 237 225 211 211 176 233 212 212 236 251 91 124 99 92 99 110 126 132 142 165 193
175 225 244 223 140 98 121 235 243 263 322 346 293 207 183 211 208 181 195 214 207 193 204 252 228 219 205 194 226 155 205 186 279 214 144 157 175 150 145 142 143 152 169 181 171
170 230 243 139 106 146 225 241 265 276 299 313 321 299 243 181 219 189 213 236 200 197 196 229 123 280 218 191 170 242 240 247 157 120 190 145 219 169 156 159 158 173 165 168 155
207 213 208 145 183 189 236 253 239 278 299 293 297 276 238 201 195 212 211 210 187 182 191 207 181 226 228 181 183 191 202 188 136 205 103 87 344 140 148 156 161 158 164 152 140
218 215 175 156 202 223 269 280 254 258 268 278 315 310 337 306 316 201 222 216 236 189 188 197 219 258 320 124 186 165 217 214 131 102 171 123 138 137 140 150 155 159 146 133 121
211 201 218 203 216 240 245 259 252 251 270 250 273 293 291 289 264 233 200 221 223 207 187 154 185 169 194 191 163 198 227 183 133 210 112 111 134 154 146 152 158 141 128 122 114
209 211 178 189 217 217 226 260 294 247 256 267 259 245 248 275 300 274 183 197 253 177 151 129 172 180 264 303 194 185 188 227 203 126 116 149 145 152 149 147 136 129 127 122 129
191 213 179 206 155 217 224 240 251 260 261 262 236 264 276 251 270 301 176 151 203 235 125 123 168 125 295 291 225 188 204 166 100 93 114 129 128 136 130 124 132 137 135 139 138
211 292 113 201 183 192 217 240 274 261 259 252 248 271 274 289 296 270 222 266 182 144 136 129 118 106 258 248 227 136 169 118 120 134 138 149 147 136 136 139 143 146 142 134 127